sat.trackr.live / text

‹ back to catalog

STARLINK-1828

NORAD 46725 · 2020-073BH

PAYLOAD ACTIVE UNKNOWN

§ Identity

Operator
Country
US
Launch date
2020-10-18
Launch site
AFETR
Launch vehicle
Mass (kg)
RCS (m²)

Purposes: comms

External: N2YO · Heavens-Above · Gunter

§ Orbital elements

Epoch: 2026-09-20T06:00:02.000160Z

Period
90.25 min
Inclination
53.0395°
Eccentricity
0.0004307
Mean motion
15.95653984 rev/d
Perigee alt
283.6 km
Apogee alt
289.4 km
Semi-major
6,664.6 km
B*
1.8531e-3
RAAN
352.9162°
Arg perigee
357.5444°
Mean anomaly
257.5837°
Rev number
603

§ Raw data

STARLINK-18281 46725U 20073BH  26263.25002315  .00759891  26003-3  18531-2 0  99962 46725  53.0395 352.9162 0004307 357.5444 257.5837 15.95653984  6036

JSON: /api/v1/satellites/46725 · /tle

For live sub-satellite position, see the globe view (requires WebGL).

§ Visibility from observer

Set your observer location to see the next 7 days of passes ≥ 10°. The values pass through the URL so the page stays shareable.

No JS? Fill the form by hand. The geolocation button needs JavaScript.